Вернуться в каталог

STARLINK-37114

АктивенСвязьVLEO
NORAD 68561·PAYLOAD·🇺🇸 United States

Запущен Apr 2, 2026 с Cape Canaveral Space Force Station

Loading…

Ближайшие Пролёты (ближайшие 24 часа)

TLE

СвежийSource: CelesTrak SupGP

Эпоха: Sep 15, 2026, 03:58 UTC

1 68561C 26070V   26258.16576389  .00009415  00000+0  27803-3 0  2588
2 68561  53.1581 198.4502 0001253  77.5125 195.7213 15.34399700    18

Отслеживайте STARLINK-37114 в реальном времени с AllMySat

Download on the App Store